Regional Weather Roundup
Issued by NWS Sterling, VA

Home | Current Version | Previous Version | Text Only | Print | Product List | Glossary On
Versions: 1 2 3 4 5 6 7 8 9 10 11 12 13 14 15 16 17 18 19 20 21 22 23 24 25 26 27 28 29 30 31 32 33 34 35 36 37 38 39 40 41 42 43 44 45 46 47 48 49 50
000
ASUS41 KLWX 290910
RWRLWX

REGIONAL WEATHER ROUNDUP
NATIONAL WEATHER SERVICE BALTIMORE MD/WASHINGTON DC
500 AM EDT SUN MAR 29 2015

Note: "FAIR" indicates few or no clouds below 12,000 feet
with no significant weather and/or obstructions to visibility.
 TC=TEMPERATURE CELSIUS

 * =Non NWS site. Station does not report precipitation (e.g. rain,
    snow, etc.), thunder, or fog.

DCZ001-MDZ009-015-VAZ040>042-051-053>054-291000-
WASHINGTON METRO

CITY           SKY/WX    TMP DP  RH WIND       PRES   REMARKS
WASHINGTON NAT CLEAR     28   6  39 NW12      30.32R WCI  18
DULLES         CLEAR     24   6  46 NW10      30.31R WCI  14
ANDREWS AFB    CLEAR     25   5  41 NW14      30.28R WCI  14
FT BELVOIR     CLEAR     26   5  40 NW8       30.32R WCI  18
QUANTICO       CLEAR     28   6  39 NW8       30.34R WCI  20
COLLEGE PARK*  CLEAR     28   5  37 NW5       30.30R
LEESBURG*      CLEAR     25  12  58 NW13      30.31S WCI  13
MANASSAS*      CLEAR     25  10  54 NW8       30.33R WCI  16
GAITHERSBURG*  CLEAR     21   5  49 NW7       30.32R

$$

MDZ006>007-011-014-291000-
BALTIMORE METRO

CITY           SKY/WX    TMP DP  RH WIND       PRES   REMARKS
BWI AIRPORT    CLEAR     24   5  44 NW9       30.28R WCI  14
MD SCIENCE CTR   N/A     27   4  37 MISG      30.36R
MARTIN STATE   CLEAR     28  10  47 W10       30.29R WCI  19
ANNAPOLIS      CLEAR     28   8  43 NW8       30.28R WCI  20

$$

MDZ012-015-019>023-291000-
MARYLAND EASTERN SHORE

CITY           SKY/WX    TMP DP  RH WIND       PRES   REMARKS
OCEAN CITY     CLEAR     26  10  50 NW9G20    30.24R WCI  17
SALISBURY      FAIR      26   8  46 NW14      30.25R WCI  14
BAY BRIDGE AP*   N/A     28   7  40 NW18G26   30.28R WCI  16
CAMBRIDGE*     CLEAR     32   7  34 N9        30.26R WCI  24
EASTON*        CLEAR     29  10  44 N13       30.30R WCI  19

$$

MDZ017>025-291000-
SOUTHERN MARYLAND

CITY           SKY/WX    TMP DP  RH WIND       PRES   REMARKS
PATUXENT RIVER CLEAR     28   4  35 NW22G29   30.28R WCI  14
ST INIGOES     CLEAR     28   3  34 NW7G17    30.28R
LEONARDTOWN*   CLEAR     28   1  31 NW8       30.30R WCI  20

$$

MDZ003>005-291000-
NORTH CENTRAL MARYLAND

CITY           SKY/WX    TMP DP  RH WIND       PRES   REMARKS
FREDERICK*     CLEAR     27   5  39 NW8       30.33R WCI  18
HAGERSTOWN APT CLEAR     22   7  52 NW9       30.28R WCI  12
WESTMINSTER*   PTCLDY    21   5  49 NW10      30.24R WCI  10

$$

MDZ501>502-291000-
WESTERN MARYLAND

CITY           SKY/WX    TMP DP  RH WIND       PRES   REMARKS
OAKLAND*       CLEAR     12  10  92 W9        30.16R WCI   0
CUMBERLAND*    CLEAR     23   9  54 CALM      30.35S

$$

VAZ025>031-291000-
SHENANDOAH VALLEY

CITY           SKY/WX    TMP DP  RH WIND       PRES   REMARKS
WINCHESTER*    CLEAR     23   3  42 NW5       30.30R
FRONT ROYAL*   FAIR      23   7  50 CALM      30.30S
LURAY*         FAIR      25  10  54 E3        30.30R
NEW MARKET*    FAIR      21   5  50 CALM      30.29S
STAUNTON*      CLEAR     18   9  68 CALM      30.29F
WAYNESBORO*    FAIR      22   5  48 CALM      30.26S

$$

WVZ021-048>050-054>055-291000-
EASTERN WEST VIRGINIA PANHANDLE

CITY           SKY/WX    TMP DP  RH WIND       PRES   REMARKS
MARTINSBURG    FAIR      23   4  44 NW3       30.31R
PETERSBURG*    CLEAR     22   6  49 CALM      30.32S

$$

VAZ036>039-050-291000-
CENTRAL FOOTHILLS

CITY           SKY/WX    TMP DP  RH WIND       PRES   REMARKS
CHARLOTTESVILL CLEAR     27   5  39 VRB5      30.30R
CULPEPER*      CLEAR     27   7  43 NW6       30.33R
ORANGE*        CLEAR     23  14  68 CALM      30.33R
GORDONSVILLE*  FAIR      19  13  78 CALM      30.32R
WARRENTON*     FAIR      25  13  61 NW3       30.31S

$$

VAZ055>057-291000-
NORTH AND CENTRAL PIEDMONT

CITY           SKY/WX    TMP DP  RH WIND       PRES   REMARKS
FREDERICKSBRG* CLEAR     28   8  42 NW5       30.32R
STAFFORD*      CLEAR     24   6  45 NW10      30.37R WCI  13

$$

NCZ024-NYZ072-PAZ021-071-VAZ022-071-291000-
OTHER REGIONAL OBSERVATIONS

CITY           SKY/WX    TMP DP  RH WIND       PRES   REMARKS
NEW YORK CITY  CLOUDY    26   8  46 VRB5      30.19R
PHILADELPHIA   PTCLDY    26   5  40 NW10      30.23R WCI  16
PITTSBURGH     CLEAR     17   8  67 CALM      30.30S
ROANOKE        CLEAR     26   6  42 NW10      30.32S WCI  16
RICHMOND       CLEAR     27   9  46 N10G20    30.32R WCI  17
RALEIGH        CLEAR     28  12  51 CALM      30.33R

$$

ANZ530>537-291000-
MARINE OBSERVATIONS

STATION/POSITION TIME  TEMP    WIND        PRES
                       AIR SEA DIR/SP/G
                 (UTC) (F)     (DEG/KT/KT) (MB)
THOMAS PT LIGHT  0900                        N/A

$$




USA.gov is the U.S. government's official web portal to all federal, state and local government web resources and services.